Waarnemingen

Advertentie
Mijn weer
Ueckermünde, Duitsland (10193): temperatuur & dauwpunt: 12.10.2017 07:00:00 - 18.10.2017 07:00:00 (CEST)Ueckermünde, Duitsland (10193): temperatuur 5cm & temperatuur -5cm: 12.10.2017 07:00:00 - 18.10.2017 07:00:00 (CEST)Ueckermünde, Duitsland (10193): temperatuur -20cm & temperatuur -100cm: 12.10.2017 07:00:00 - 18.10.2017 07:00:00 (CEST)Ueckermünde, Duitsland (10193): windsnelheid & windstoten: 12.10.2017 07:00:00 - 18.10.2017 07:00:00 (CEST)Ueckermünde, Duitsland (10193): windrichting: 12.10.2017 07:00:00 - 18.10.2017 07:00:00 (CEST)Ueckermünde, Duitsland (10193): luchtdruk: 12.10.2017 07:00:00 - 18.10.2017 07:00:00 (CEST)Ueckermünde, Duitsland (10193): zicht: 12.10.2017 07:00:00 - 18.10.2017 07:00:00 (CEST)Ueckermünde, Duitsland (10193): Zonneschijnduur: 12.10.2017 07:00:00 - 18.10.2017 07:00:00 (CEST)Ueckermünde, Duitsland (10193): neerslag: 12.10.2017 07:00:00 - 18.10.2017 07:00:00 (CEST)
Datum & Tijd tt [°C] td [°C] tt 5cm [°C] tt -5cm [°C] tt -20cm [°C] tt -100cm [°C] ff [km/u] ff [kn] fx [km/u] fx [kn] dd ppp [hPa] vv [km] sd [min] rr [mm]
18.10.2017 07:00:00 8,4 8,4 5,5 9,0 12,5 13,4 7 4 9 5 ZZW 1016,1 0,9 0 0,0
18.10.2017 06:00:00 9,5 9,4 6,7 9,5 12,7 13,4 6 4 13 7 ZW 1016,2 4,9 0 0,0
18.10.2017 05:00:00 10,3 10,3 7,4 9,9 12,9 13,4 7 4 11 6 ZW 1016,2 5 0 0,0
18.10.2017 04:00:00 10,4 10,2 8,1 10,2 13,1 13,4 7 4 12 6 ZZW 1016,7 6 0 0,0
18.10.2017 03:00:00 11,3 10,7 8,0 10,7 13,3 13,4 5 3 10 5 ZW 1016,8 11 0 0,0
18.10.2017 02:00:00 12,4 11,2 10,2 11,3 13,5 13,4 9 5 17 9 ZW 1017,0 12 0 0,0
18.10.2017 01:00:00 13,1 11,9 11,3 11,7 13,7 13,4 10 5 16 9 ZW 1017,2 10 0 0,0
18.10.2017 00:00:00 13,3 12,5 11,4 12,1 13,8 13,4 9 5 12 7 ZZW 1017,5 8 0 0,0
17.10.2017 23:00:00 14,2 13,0 12,7 12,7 14,0 13,4 8 4 14 8 ZW 1017,7 9 0 0,0
17.10.2017 22:00:00 14,1 13,0 12,3 13,0 14,1 13,3 7 4 16 9 ZW 1017,7 8 0 0,0
17.10.2017 21:00:00 14,8 13,4 13,3 13,2 14,3 13,3 14 8 23 12 ZW 1017,7 10 0 0,0
17.10.2017 20:00:00 15,3 13,9 13,5 13,6 14,4 13,3 9 5 16 8 ZZW 1017,8 9 0 0,0
17.10.2017 19:00:00 16,2 14,2 14,6 14,2 14,5 13,3 10 6 18 10 ZZW 1017,8 12 0 0,0
17.10.2017 18:00:00 16,8 14,3 15,0 15,0 14,5 13,3 11 6 16 9 ZZW 1018,0 11 0 0,0
17.10.2017 17:00:00 17,9 14,7 16,7 15,9 14,4 13,3 13 7 23 12 ZW 1018,3 14 0 0,0
17.10.2017 16:00:00 18,4 14,7 17,7 16,5 14,2 13,3 14 8 22 12 ZW 1018,3 15 0 0,0
17.10.2017 15:00:00 18,9 14,5 18,4 16,8 13,9 13,3 10 6 27 15 ZW 1018,8 18 0 0,0
17.10.2017 14:00:00 18,8 14,0 18,5 17,0 13,6 13,3 16 9 27 14 ZW 1019,1 19 2 0,0
17.10.2017 13:00:00 18,1 14,1 18,1 16,2 13,3 13,3 12 7 22 12 ZW 1019,7 17 12 0,0
17.10.2017 12:00:00 17,2 13,5 17,1 15,2 13,0 13,3 14 8 25 13 ZW 1020,0 14 37 0,0
17.10.2017 11:00:00 16,1 13,2 15,8 13,8 12,9 13,3 14 8 20 11 ZW 1020,0 15 1 0,0
17.10.2017 10:00:00 14,2 12,7 13,5 12,5 12,8 13,3 10 5 16 9 ZZW 1020,1 12 0 0,0
17.10.2017 09:00:00 12,9 12,1 11,9 11,7 12,9 13,3 13 7 19 10 ZZW 1019,9 9 0 0,0
17.10.2017 08:00:00 12,5 11,9 11,4 11,5 13,0 13,3 14 7 20 11 Z 1019,3 9 0 0,0
17.10.2017 07:00:00 12,9 12,4 11,8 11,7 13,0 13,3 16 8 22 12 ZZW 1019,4 8 0 0,0
17.10.2017 06:00:00 13,3 12,7 12,2 11,6 13,1 13,3 17 9 22 12 Z 1019,6 8 0 0,0
17.10.2017 05:00:00 13,0 12,7 12,0 11,6 13,2 13,3 14 8 21 11 Z 1019,9 7 0 0,0
17.10.2017 04:00:00 12,8 12,6 11,8 11,5 13,3 13,3 12 6 17 9 Z 1020,3 3,6 0 0,0
17.10.2017 03:00:00 12,9 12,7 11,7 11,4 13,5 13,3 10 6 14 8 Z 1020,8 3,9 0 0,0
17.10.2017 02:00:00 12,9 12,9 11,6 11,3 13,7 13,3 10 5 13 7 Z 1021,2 3,5 0 0,0
17.10.2017 01:00:00 10,5 10,5 7,9 11,2 13,9 13,3 6 4 10 5 Z 1021,3 0,2 0 0,0
17.10.2017 00:00:00 11,2 11,2 8,1 11,6 14,2 13,2 5 3 7 4 Z 1021,5 0,1 0 0,0
16.10.2017 23:00:00 12,0 12,0 8,8 12,1 14,5 13,2 4 2 6 3 O 1021,5 0,4 0 0,0
16.10.2017 22:00:00 12,9 12,9 9,4 12,7 14,7 13,2 0 0 10 5 N 1021,4 0,5 0 0,0
16.10.2017 21:00:00 13,1 13,1 9,7 13,4 15,0 13,2 6 3 10 6 ZZW 1021,2 1,6 0 0,0
16.10.2017 20:00:00 14,8 14,1 12,7 14,3 15,2 13,2 8 4 11 6 ZZW 1021,1 10 0 0,0
16.10.2017 19:00:00 16,0 14,5 13,4 15,4 15,3 13,2 8 4 11 6 ZZW 1021,1 11 0 0,0
16.10.2017 18:00:00 18,5 15,1 15,7 16,9 15,2 13,2 7 4 12 6 ZW 1020,9 17 9 0,0
16.10.2017 17:00:00 20,1 15,5 19,2 18,1 15,0 13,2 8 5 19 11 ZW 1021,1 18 60 0,0
16.10.2017 16:00:00 20,5 15,2 20,5 18,8 14,7 13,2 14 8 23 12 WZW 1021,1 27 60 0,0
16.10.2017 15:00:00 20,6 15,4 21,1 19,0 14,3 13,2 15 8 26 14 ZW 1021,0 12 60 0,0
16.10.2017 14:00:00 20,0 14,8 20,6 18,7 13,8 13,2 18 10 26 14 ZW 1021,1 12 60 0,0
16.10.2017 13:00:00 19,3 14,8 20,1 17,9 13,3 13,2 13 7 23 13 WZW 1021,1 16 60 0,0
16.10.2017 12:00:00 17,8 13,9 18,4 16,3 12,8 13,2 14 8 22 12 WZW 1021,0 14 60 0,0
16.10.2017 11:00:00 16,4 13,5 16,5 14,4 12,6 13,2 14 8 23 13 WZW 1021,2 11 60 0,0
16.10.2017 10:00:00 14,1 12,2 14,0 12,4 12,6 13,2 12 7 18 10 ZZW 1020,8 11 60 0,0
16.10.2017 09:00:00 12,3 11,7 11,6 10,8 12,7 13,2 13 7 20 11 Z 1020,5 10 35 0,0
16.10.2017 08:00:00 11,4 11,2 10,3 10,6 12,8 13,2 12 6 19 11 Z 1020,5 7 0 0,0
16.10.2017 07:00:00 11,7 11,5 10,6 10,8 13,0 13,1 14 7 20 11 Z 1020,3 6 0 0,0
16.10.2017 06:00:00 11,9 11,6 10,7 10,9 13,1 13,1 13 7 18 10 Z 1020,5 7 0 0,0
16.10.2017 05:00:00 11,9 11,7 10,6 11,1 13,3 13,1 11 6 16 9 Z 1020,7 5 0 0,0
16.10.2017 04:00:00 12,4 12,2 11,1 11,4 13,4 13,1 11 6 21 11 Z 1020,8 7 0 0,0
16.10.2017 03:00:00 12,7 12,5 11,5 11,7 13,6 13,1 13 7 20 11 Z 1020,9 7 0 0,0
16.10.2017 02:00:00 13,0 12,7 11,8 11,8 13,8 13,1 11 6 18 10 ZZW 1021,2 7 0 0,0
16.10.2017 01:00:00 13,3 13,1 12,1 12,0 13,9 13,1 13 7 19 10 Z 1021,3 6 0 0,0
16.10.2017 00:00:00 13,4 13,2 12,3 12,3 14,1 13,1 14 7 21 11 Z 1021,8 5 0 0,0
15.10.2017 23:00:00 13,8 13,5 12,5 12,7 14,3 13,1 13 7 19 10 Z 1022,2 6 0 0,0
15.10.2017 22:00:00 14,3 13,7 13,0 13,2 14,5 13,1 13 7 19 11 Z 1022,4 7 0 0,0
15.10.2017 21:00:00 14,7 14,0 13,3 13,5 14,7 13,1 13 7 20 11 Z 1022,8 11 0 0,0
15.10.2017 20:00:00 14,7 13,9 13,2 14,0 14,9 13,1 10 6 16 9 Z 1023,3 13 0 0,0
15.10.2017 19:00:00 15,3 14,3 13,7 14,7 15,0 13,0 10 5 15 8 ZZO 1023,6 16 0 0,0
15.10.2017 18:00:00 16,5 14,5 15,5 16,1 14,9 13,0 11 6 22 12 Z 1023,7 22 50 0,0
15.10.2017 17:00:00 18,1 15,0 19,2 17,3 14,8 13,0 14 8 22 12 Z 1023,9 22 60 0,0
15.10.2017 16:00:00 18,3 14,9 20,4 17,4 14,6 13,0 10 6 20 11 Z 1024,5 19 33 0,0
15.10.2017 15:00:00 16,6 14,4 17,5 16,9 14,4 13,0 12 6 20 11 Z 1024,9 17 0 0,0
15.10.2017 14:00:00 16,5 14,0 17,1 16,7 14,2 13,0 12 6 22 12 ZZW 1025,5 19 0 0,0
15.10.2017 13:00:00 16,6 14,0 17,8 16,6 14,0 13,0 10 5 16 9 Z 1025,8 15 0 0,0
15.10.2017 12:00:00 16,2 13,9 16,6 15,9 13,8 13,0 9 5 13 7 ZW 1025,9 14 0 0,0
15.10.2017 11:00:00 16,2 14,1 16,9 15,4 13,7 13,0 5 3 16 9 WZW 1026,0 16 0 0,0
15.10.2017 10:00:00 15,6 14,1 15,8 14,4 13,7 13,0 8 4 15 8 WZW 1025,8 17 0 0,0
15.10.2017 09:00:00 15,6 14,0 15,3 13,9 13,6 13,0 10 6 22 12 W 1025,5 19 0 0,0
15.10.2017 08:00:00 15,2 13,8 14,7 13,6 13,7 13,0 10 5 21 11 W 1025,0 18 0 0,0
15.10.2017 07:00:00 15,1 13,5 14,6 13,2 13,8 13,0 13 7 23 12 W 1024,7 17 0 0,0
15.10.2017 06:00:00 14,2 13,1 12,9 12,9 13,9 13,0 13 7 23 12 WZW 1024,2 13 0 0,0
15.10.2017 05:00:00 14,8 13,3 13,5 13,5 14,0 12,9 15 8 24 13 ZW 1023,8 19 0 0,0
15.10.2017 04:00:00 15,6 13,6 15,0 14,2 14,0 12,9 16 8 22 12 WZW 1023,9 21 0 0,0
15.10.2017 03:00:00 15,7 13,8 15,1 14,2 14,0 12,9 11 6 19 10 WZW 1024,0 21 0 0,0
15.10.2017 02:00:00 15,9 13,7 15,3 14,3 14,1 12,9 12 6 23 12 ZW 1024,1 22 0 0,0
15.10.2017 01:00:00 15,8 13,7 15,3 14,3 14,1 12,9 13 7 18 10 ZW 1023,7 22 0 0,0
15.10.2017 00:00:00 16,0 13,9 15,3 14,5 14,1 12,9 10 5 22 12 ZW 1024,1 20 0 0,0
14.10.2017 23:00:00 16,6 13,8 15,8 14,8 14,2 12,9 13 7 28 15 WZW 1024,1 25 0 0,0
14.10.2017 22:00:00 16,5 14,9 15,9 14,9 14,2 12,9 11 6 19 10 WZW 1024,4 18 0 0,0
14.10.2017 21:00:00 16,8 15,0 16,2 15,0 14,2 12,9 10 5 21 11 WZW 1024,0 19 0 0,0
14.10.2017 20:00:00 16,6 15,0 16,1 15,1 14,2 12,9 12 7 27 15 WZW 1023,8 13 0 0,0
14.10.2017 19:00:00 16,9 15,0 16,4 15,3 14,2 12,9 14 7 27 14 WZW 1023,4 17 0 0,0
14.10.2017 18:00:00 17,1 14,9 16,7 15,7 14,1 12,9 16 9 29 16 WZW 1023,2 18 0 0,0
14.10.2017 17:00:00 17,5 14,9 17,2 16,1 14,0 12,9 18 10 33 18 WZW 1022,5 19 0 0,0
14.10.2017 16:00:00 17,9 15,1 18,0 16,4 13,8 12,9 16 9 30 16 WZW 1022,4 21 0 0,0
14.10.2017 15:00:00 17,9 15,0 18,2 17,0 13,5 12,9 19 10 38 20 ZW 1022,2 17 10 0,0
14.10.2017 14:00:00 18,2 15,1 19,3 16,6 13,3 12,9 20 11 36 19 WZW 1022,0 11 18 0,0
14.10.2017 13:00:00 17,1 14,5 17,4 15,8 13,0 12,9 18 10 32 18 WZW 1022,5 16 0 0,0
14.10.2017 12:00:00 17,0 14,4 17,5 15,3 12,8 12,9 18 10 31 17 WZW 1022,3 16 0 0,0
14.10.2017 11:00:00 16,6 14,2 16,9 14,7 12,6 12,9 16 9 29 16 WZW 1022,2 16 0 0,0
14.10.2017 10:00:00 16,3 13,9 16,3 14,2 12,4 12,9 18 10 33 18 WZW 1022,1 16 0 0,0
14.10.2017 09:00:00 15,4 13,4 15,1 13,0 12,4 12,9 19 10 30 16 ZW 1021,5 14 0 0,0
14.10.2017 08:00:00 15,0 13,0 14,4 12,7 12,3 12,9 17 9 27 15 ZW 1021,3 13 0 0,0
14.10.2017 07:00:00 14,9 12,8 14,4 12,6 12,2 12,9 17 9 25 14 ZW 1021,8 14 0 0,0
14.10.2017 06:00:00 14,7 12,6 13,9 12,4 12,2 12,9 14 8 28 15 ZW 1021,7 15 0 0,0
14.10.2017 05:00:00 14,7 12,3 14,1 12,3 12,1 12,9 16 9 23 13 ZW 1021,9 16 0 0,0
14.10.2017 04:00:00 14,3 11,9 13,7 12,1 12,1 12,9 13 7 19 11 ZW 1022,3 17 0 0,0
14.10.2017 03:00:00 14,1 11,6 13,5 11,9 12,1 12,9 13 7 19 10 ZW 1022,4 18 0 0,0
14.10.2017 02:00:00 13,2 11,2 12,7 11,6 12,1 12,9 9 5 16 9 ZZW 1022,8 19 0 0,0
14.10.2017 01:00:00 13,0 10,8 12,5 11,5 12,1 12,9 11 6 18 10 ZW 1022,6 17 0 0,0
14.10.2017 00:00:00 12,6 10,6 12,0 11,2 12,1 12,9 10 6 16 9 ZZW 1022,8 20 0 0,0
13.10.2017 23:00:00 11,9 10,4 11,5 10,9 12,3 12,9 12 7 18 10 ZW 1023,0 17 0 0,0
13.10.2017 22:00:00 11,1 9,9 9,9 10,5 12,5 12,9 11 6 14 8 ZW 1023,3 15 0 0,0
13.10.2017 21:00:00 11,3 10,1 9,9 10,8 12,7 12,9 11 6 16 8 ZW 1023,2 17 0 0,0
13.10.2017 20:00:00 11,5 10,2 10,1 11,4 12,8 12,9 11 6 16 9 ZZW 1022,8 20 0 0,0
13.10.2017 19:00:00 12,2 10,2 10,8 12,1 12,9 12,9 8 4 10 5 ZW 1023,1 29 0 0,0
13.10.2017 18:00:00 12,5 9,6 10,2 13,1 12,9 12,9 5 3 21 11 ZW 1022,9 20 7 0,0
13.10.2017 17:00:00 14,7 9,6 14,6 14,3 12,8 12,9 11 6 22 12 WZW 1022,9 40 37 0,0
13.10.2017 16:00:00 14,8 9,4 15,2 14,4 12,6 12,9 9 5 22 12 W 1022,9 42 7 0,0
13.10.2017 15:00:00 15,2 9,5 15,6 15,2 12,4 12,9 14 8 22 12 W 1022,6 33 33 0,0
13.10.2017 14:00:00 13,9 9,8 13,6 14,5 12,1 12,9 14 7 25 14 W 1022,6 43 17 0,0
13.10.2017 13:00:00 14,0 10,0 14,8 15,1 11,7 12,9 17 9 27 15 W 1022,3 36 56 0,0
13.10.2017 12:00:00 13,9 10,0 15,1 14,1 11,3 12,9 16 9 31 17 W 1022,3 27 60 0,0
13.10.2017 11:00:00 12,8 9,7 13,3 12,7 11,1 12,9 17 9 31 17 W 1022,0 26 58 0,0
13.10.2017 10:00:00 11,9 9,3 12,3 10,9 11,0 12,9 15 8 29 16 WZW 1021,5 33 52 0,0
13.10.2017 09:00:00 10,9 9,0 10,8 9,3 11,1 12,9 16 9 28 15 WZW 1020,8 34 10 0,0
13.10.2017 08:00:00 10,3 8,8 9,3 9,1 11,2 12,9 18 10 28 15 W 1020,3 37 0 0,0
13.10.2017 07:00:00 10,2 8,7 9,0 9,1 11,3 12,9 16 9 26 14 WZW 1020,0 35 0 0,0
13.10.2017 06:00:00 10,7 8,8 9,5 9,6 11,3 12,9 18 10 35 19 WZW 1019,5 37 0 0,0
13.10.2017 05:00:00 11,1 8,8 10,3 9,8 11,4 12,9 16 9 36 20 WZW 1019,1 39 0 0,0
13.10.2017 04:00:00 11,2 8,7 10,5 9,7 11,4 12,9 18 10 35 19 WZW 1018,6 42 0 0,0
13.10.2017 03:00:00 11,1 8,6 10,2 9,4 11,5 12,9 18 10 29 16 WZW 1018,0 41 0 0,0
13.10.2017 02:00:00 11,1 8,4 10,0 9,6 11,7 12,9 17 9 36 20 WZW 1017,7 45 0 0,0
13.10.2017 01:00:00 11,2 8,5 10,1 9,7 11,8 12,9 19 10 31 17 WZW 1017,3 46 0 0,0
13.10.2017 00:00:00 11,6 7,9 10,7 9,9 11,9 12,9 22 12 37 20 WZW 1016,7 47 0 0,0
12.10.2017 23:00:00 11,8 7,7 10,5 10,0 12,0 12,9 24 13 74 40 W 1016,4 50 0 0,0
12.10.2017 22:00:00 11,9 7,5 10,6 9,8 12,2 12,9 26 14 41 22 WZW 1016,0 48 0 0,0
12.10.2017 21:00:00 11,6 7,2 10,1 10,0 12,4 12,9 23 13 41 22 WZW 1015,9 52 0 0,0
12.10.2017 20:00:00 11,5 7,9 9,8 10,4 12,6 12,9 24 13 40 21 WZW 1015,5 52 0 0,0
12.10.2017 19:00:00 11,1 9,1 9,7 11,0 12,8 12,9 22 12 41 22 WZW 1015,4 46 0 0,5
12.10.2017 18:00:00 11,6 8,4 9,9 11,6 12,9 12,9 34 18 56 31 W 1014,5 18 0 0,2
12.10.2017 17:00:00 13,0 7,7 12,1 12,3 12,9 12,9 18 10 56 30 W 1014,0 70 8 0,0
12.10.2017 16:00:00 13,6 9,0 12,8 13,5 12,9 12,9 28 15 48 26 W 1013,1 30 38 0,2
12.10.2017 15:00:00 12,2 9,9 11,1 13,0 12,9 12,9 26 14 58 31 W 1012,6 8 0 0,7
12.10.2017 14:00:00 14,2 9,0 13,7 13,3 12,9 12,9 25 14 55 30 W 1011,1 42 0 0,0
12.10.2017 13:00:00 15,0 8,7 14,9 14,0 12,7 12,9 30 16 64 35 WZW 1010,3 54 11 0,0
12.10.2017 12:00:00 15,5 8,6 15,9 14,3 12,5 12,9 38 20 59 32 WZW 1009,6 17 42 0,0
12.10.2017 11:00:00 15,1 10,1 15,1 13,7 12,4 12,9 31 17 53 29 WZW 1009,0 25 37 0,0
12.10.2017 10:00:00 14,3 11,5 14,5 12,5 12,3 12,9 24 13 45 24 ZW 1008,9 32 16 0,0
12.10.2017 09:00:00 13,7 11,4 13,3 12,1 12,3 12,8 23 12 45 24 ZW 1008,7 55 0 0,0
12.10.2017 08:00:00 13,2 11,4 12,3 11,9 12,3 12,8 23 12 48 26 ZW 1008,2 50 0 0,0
12.10.2017 07:00:00 13,5 10,8 12,6 11,7 12,4 12,8 25 14 43 23 ZW 1008,3 55 0 0,0

tt = temperatuur
td = dauwpunt
tt 5cm = temperatuur 5cm
tt -5cm = temperatuur -5cm
tt -20cm = temperatuur -20cm
tt -100cm = temperatuur -100cm
ff = windsnelheid
fx = windstoten
dd = windrichting
ppp = luchtdruk
vv = zicht
sd = Zonneschijnduur
rr = neerslag

Weerstations in de omgeving